Location: Keewatin
(47.4004°N, 93.0827°W)
Time: 14:32:39
(UTC+00:00)

Envisat - Pass Details

Date: 08 December 2019
Orbit: 764 x 766 km, 98.1° (Epoch: 18 January)

Event Time Altitude Azimuth Distance (km) Brightness Sun altitude
Rises 23:51:13 0° 160° (SSE) 3,221 6.2 -14.4°
Reaches altitude 10° 23:53:31 10° 159° (SSE) 2,299 5.4 -14.8°
Maximum altitude 23:58:34 77° 74° (ENE) 792 2.9 -15.6°
Drops below altitude 10° 00:03:40 10° 349° (N) 2,316 5.4 -16.4°
Sets 00:05:59 0° 348° (NNW) 3,246 6.2 -16.8°
